Location: Aalen
(48.8330°N, 10.1000°E)
Time: 00:05:23
(UTC+02:00)

Transit 2A - Pass Details

Date: 05 August 2021
Orbit: 594 x 964 km, 66.7° (Epoch: 26 September)

Event Time Altitude Azimuth Distance (km) Brightness Sun altitude
Rises 13:37:34 0° 327° (NNW) 3,174 8.9 57.9°
Reaches altitude 10° 13:40:05 10° 337° (NNW) 2,310 8.3 57.9°
Maximum altitude 13:44:52 32° 41° (NE) 1,376 7.4 57.8°
Drops below altitude 10° 13:50:03 10° 104° (ESE) 2,524 8.8 57.6°
Sets 13:52:55 0° 113° (ESE) 3,514 9.5 57.5°
